Detroit Lakes, MN

11:58 AM CDT on May 24, 2017 (GMT -0500)
Detroit Lakes

Weather History for KDTL - January, 2013

Change the Weather History Date:

Saturday, January 19, 2013

  Actual Average Record
Temperature  
Mean Temperature 12 °F -  
Max Temperature 30 °F 14 °F 42 °F (2017)
Min Temperature -5 °F -5 °F -40 °F (1970)
Degree Days  
Heating Degree Days 52    
Moisture  
Dew Point 9 °F    
Average Humidity 89    
Maximum Humidity 100    
Minimum Humidity 78    
Precipitation  
Precipitation 0.00 in - - ()
Sea Level Pressure  
Sea Level Pressure 29.89 in    
Wind  
Wind Speed 14 mph (NW)    
Max Wind Speed 36 mph    
Max Gust Speed 46 mph    
Visibility 4 miles    
Events Snow    
Averages and records for this station are not official NWS values.
T = Trace of Precipitation, MM = Missing Value Source: NWS Daily Summary

Daily Weather History Graph

Daily Weather History Graph

Search for Another Location

Airport or City:

Trip Planner

Search our weather history database for the weather conditions in past years. The results will help you decide how hot, cold, wet, or windy it might be!

Date:

Astronomy

Jan. 19, 2013 Rise Set
Actual Time 8:01 AM CST 5:08 PM CST
Civil Twilight 7:27 AM CST 5:41 PM CST
Nautical Twilight 6:50 AM CST 6:19 PM CST
Astronomical Twilight 6:14 AM CST 6:55 PM CST
Moon 11:39 AM CST (1/19) 1:30 AM CST (1/19)
Length of Visible Light 10h 14m
Length of Day
9h 06m
First Quarter, 57% of the Moon is Illuminated
Jan 19
First Quarter
Jan 26
Full
Feb 3
Last Quarter
Feb 10
New
Feb 17
First Quarter

Hourly Weather History & Observations

Time (CST) Temp. Windchill Dew Point Humidity Pressure Visibility Wind Dir Wind Speed Gust Speed Precip Events Conditions
12:13 AM 21.2 °F 13.6 °F 21.2 °F 100% 29.67 in 7.0 mi South 5.8 mph - N/A   Clear
12:32 AM 21.2 °F 14.9 °F 21.2 °F 100% 29.66 in 7.0 mi SSE 4.6 mph - N/A   Clear
12:53 AM 23.0 °F - 21.2 °F 93% 29.66 in 7.0 mi Calm Calm - N/A   Clear
1:13 AM 21.2 °F - 21.2 °F 100% 29.67 in 7.0 mi Calm Calm - N/A   Clear
1:32 AM 21.2 °F 13.6 °F 19.4 °F 93% 29.66 in 5.0 mi South 5.8 mph - N/A   Clear
1:53 AM 19.4 °F - 19.4 °F 100% 29.66 in 5.0 mi Calm Calm - N/A   Clear
2:13 AM 21.2 °F 14.9 °F 21.2 °F 100% 29.66 in 4.0 mi South 4.6 mph - N/A   Clear
2:32 AM 21.2 °F 16.4 °F 21.2 °F 100% 29.67 in 5.0 mi South 3.5 mph - N/A   Clear
2:53 AM 21.2 °F 14.9 °F 21.2 °F 100% 29.66 in 5.0 mi ESE 4.6 mph - N/A   Clear
3:13 AM 21.2 °F 16.4 °F 21.2 °F 100% 29.67 in 5.0 mi South 3.5 mph - N/A   Clear
3:32 AM 23.0 °F 17.0 °F 23.0 °F 100% 29.65 in 5.0 mi South 4.6 mph - N/A   Clear
3:53 AM 23.0 °F 18.4 °F 23.0 °F 100% 29.66 in 5.0 mi SW 3.5 mph - N/A   Clear
4:13 AM 23.0 °F 17.0 °F 23.0 °F 100% 29.65 in 5.0 mi SSW 4.6 mph - N/A   Clear
4:32 AM 23.0 °F 18.4 °F 23.0 °F 100% 29.65 in 5.0 mi SW 3.5 mph - N/A   Clear
4:53 AM 24.8 °F 20.5 °F 24.8 °F 100% 29.64 in 5.0 mi SSW 3.5 mph - N/A   Clear
5:13 AM 23.0 °F 17.0 °F 23.0 °F 100% 29.65 in 5.0 mi WSW 4.6 mph - N/A   Clear
5:32 AM 26.6 °F 20.0 °F 26.6 °F 100% 29.64 in 5.0 mi WSW 5.8 mph - N/A   Clear
5:53 AM 26.6 °F 19.1 °F 26.6 °F 100% 29.65 in 10.0 mi West 6.9 mph - N/A   Clear
6:13 AM 28.4 °F 19.1 °F 28.4 °F 100% 29.66 in 10.0 mi West 10.4 mph - N/A   Clear
6:32 AM 30.2 °F 20.8 °F 28.4 °F 93% 29.66 in 10.0 mi WNW 11.5 mph - N/A   Clear
6:53 AM 30.2 °F 20.8 °F 28.4 °F 93% 29.67 in 10.0 mi WNW 11.5 mph - N/A   Clear
7:13 AM 30.2 °F 19.8 °F 28.4 °F 93% 29.67 in 10.0 mi WNW 13.8 mph - N/A   Scattered Clouds
7:32 AM 30.2 °F 18.5 °F 28.4 °F 93% 29.68 in 10.0 mi NW 17.3 mph 23.0 mph N/A   Mostly Cloudy
7:53 AM 30.2 °F 19.3 °F 28.4 °F 93% 29.69 in 10.0 mi NW 15.0 mph - N/A   Overcast
8:12 AM 30.2 °F 19.8 °F 28.4 °F 93% 29.70 in 10.0 mi NW 13.8 mph 19.6 mph N/A   Overcast
8:33 AM 30.2 °F 18.5 °F 28.4 °F 93% 29.71 in 10.0 mi NW 17.3 mph 20.7 mph N/A   Overcast
8:53 AM 28.4 °F 16.6 °F 26.6 °F 93% 29.72 in 10.0 mi NW 16.1 mph 23.0 mph N/A   Overcast
9:12 AM 28.4 °F 18.0 °F 26.6 °F 93% 29.72 in 10.0 mi NW 12.7 mph - N/A   Overcast
9:33 AM 26.6 °F 13.4 °F 24.8 °F 93% 29.74 in 10.0 mi NNW 18.4 mph 26.5 mph N/A   Overcast
9:53 AM 23.0 °F 6.0 °F 21.2 °F 93% 29.76 in 2.0 mi NNW 27.6 mph 41.4 mph N/A   Overcast
10:12 AM 17.6 °F -0.3 °F 15.8 °F 93% 29.79 in 1.0 mi NNW 24.2 mph 32.2 mph N/A   Overcast
10:33 AM 14.0 °F -6.5 °F 12.2 °F 93% 29.81 in 1.2 mi NNW 28.8 mph 35.7 mph N/A Snow Light Snow
10:53 AM 12.2 °F -9.9 °F 8.6 °F 85% 29.82 in 1.0 mi NNW 32.2 mph 38.0 mph N/A Snow Light Snow
11:12 AM 10.4 °F -9.5 °F 8.6 °F 92% 29.84 in 2.5 mi NW 23.0 mph 33.4 mph N/A Snow Light Snow
11:33 AM 10.4 °F -11.4 °F 8.6 °F 92% 29.84 in 0.8 mi NNW 28.8 mph 34.5 mph N/A Snow Light Snow
11:53 AM 10.4 °F -9.5 °F 5.0 °F 79% 29.86 in 2.5 mi NNW 23.0 mph 36.8 mph N/A   Overcast
12:12 PM 10.4 °F -11.7 °F 5.0 °F 79% 29.86 in 1.8 mi NNW 29.9 mph 38.0 mph N/A   Overcast
12:33 PM 10.4 °F -10.7 °F 5.0 °F 79% 29.86 in 1.8 mi NW 26.5 mph 35.7 mph N/A   Overcast
12:53 PM 10.4 °F -11.4 °F 5.0 °F 79% 29.87 in 1.2 mi NW 28.8 mph 35.7 mph N/A   Overcast
1:13 PM 8.6 °F -14.5 °F 5.0 °F 85% 29.87 in 1.5 mi NNW 31.1 mph 41.4 mph N/A   Overcast
1:33 PM 8.6 °F -14.8 °F 3.2 °F 79% 29.88 in 2.0 mi NNW 32.2 mph 39.1 mph N/A   Haze
1:53 PM 8.6 °F -14.1 °F 3.2 °F 79% 29.89 in 2.0 mi NW 29.9 mph 42.6 mph N/A   Haze
2:13 PM 5.0 °F -19.0 °F 3.2 °F 92% 29.91 in 0.8 mi NNW 29.9 mph 40.3 mph N/A Snow Light Snow
2:33 PM 5.0 °F -19.4 °F 1.4 °F 85% 29.92 in 0.5 mi NNW 31.1 mph 44.9 mph N/A Snow Light Snow
2:53 PM 3.2 °F -23.2 °F -2.2 °F 78% 29.94 in 1.8 mi NW 35.7 mph 43.7 mph N/A   Haze
3:13 PM 3.2 °F -23.2 °F -2.2 °F 78% 29.96 in 2.0 mi NW 35.7 mph 44.9 mph N/A   Haze
3:33 PM 1.4 °F -24.6 °F -2.2 °F 85% 29.98 in 0.8 mi NNW 32.2 mph 41.4 mph N/A Snow Light Snow
3:53 PM 1.4 °F -25.7 °F -2.2 °F 85% 29.99 in 1.2 mi NNW 35.7 mph 44.9 mph N/A   Overcast
4:13 PM 1.4 °F -25.0 °F -2.2 °F 85% 30.02 in 0.5 mi NW 33.4 mph 46.0 mph N/A Snow Light Snow
4:33 PM 1.4 °F -25.0 °F -2.2 °F 85% 30.03 in 1.0 mi NNW 33.4 mph 43.7 mph N/A Snow Light Snow
4:53 PM 1.4 °F -24.3 °F -4.0 °F 78% 30.06 in 1.0 mi NNW 31.1 mph 46.0 mph N/A Snow Light Snow
5:13 PM 1.4 °F -23.9 °F -4.0 °F 78% 30.08 in 0.8 mi NNW 29.9 mph 46.0 mph N/A Snow Light Snow
5:33 PM 1.4 °F -24.6 °F -4.0 °F 78% 30.10 in 1.5 mi NW 32.2 mph 40.3 mph N/A Snow Light Snow
5:52 PM -0.4 °F -25.6 °F -4.0 °F 85% 30.10 in 1.8 mi NNW 27.6 mph 40.3 mph N/A   Overcast
6:13 PM -0.4 °F -26.7 °F -4.0 °F 85% 30.12 in 1.0 mi NNW 31.1 mph 39.1 mph N/A Snow Light Snow
6:33 PM -0.4 °F -26.7 °F -5.8 °F 78% 30.13 in 1.2 mi NNW 31.1 mph 43.7 mph N/A Snow Light Snow
6:52 PM -2.2 °F -27.1 °F -5.8 °F 85% 30.16 in 1.5 mi NNW 25.3 mph 35.7 mph N/A   Overcast
7:13 PM -2.2 °F -27.1 °F -5.8 °F 85% 30.17 in 2.5 mi NNW 25.3 mph 33.4 mph N/A   Overcast
7:33 PM -2.2 °F -27.6 °F -7.6 °F 78% 30.19 in 4.0 mi NNW 26.5 mph 36.8 mph N/A   Haze
7:52 PM -2.2 °F -25.2 °F -5.8 °F 85% 30.20 in 2.5 mi NNW 20.7 mph 26.5 mph N/A   Overcast
8:13 PM -4.0 °F -27.6 °F -7.6 °F 85% 30.21 in 4.0 mi NNW 20.7 mph 27.6 mph N/A   Mostly Cloudy
8:33 PM -4.0 °F -28.6 °F -7.6 °F 85% 30.21 in 5.0 mi NNW 23.0 mph - N/A   Overcast
8:52 PM -4.0 °F -27.0 °F -7.6 °F 85% 30.22 in 3.0 mi NNW 19.6 mph 27.6 mph N/A   Overcast
9:13 PM -4.0 °F -27.0 °F -7.6 °F 85% 30.23 in 2.5 mi NNW 19.6 mph 24.2 mph N/A   Overcast
9:33 PM -4.0 °F -25.2 °F -7.6 °F 85% 30.24 in 7.0 mi NNW 16.1 mph 24.2 mph N/A   Overcast
9:52 PM -4.0 °F -26.4 °F -7.6 °F 85% 30.24 in 2.5 mi NNW 18.4 mph 26.5 mph N/A   Overcast
10:13 PM -4.0 °F -26.4 °F -7.6 °F 85% 30.24 in 4.0 mi NNW 18.4 mph 24.2 mph N/A   Mostly Cloudy
10:33 PM -4.0 °F -25.8 °F -7.6 °F 85% 30.24 in 3.0 mi NNW 17.3 mph 23.0 mph N/A   Overcast
10:52 PM -5.8 °F -27.5 °F -9.4 °F 84% 30.26 in 7.0 mi NW 16.1 mph 21.9 mph N/A   Mostly Cloudy
11:13 PM -5.8 °F -25.2 °F -7.6 °F 92% 30.27 in 2.0 mi NW 12.7 mph 17.3 mph N/A Snow Light Snow
11:33 PM -5.8 °F -26.8 °F -9.4 °F 84% 30.26 in 3.0 mi NNW 15.0 mph 19.6 mph N/A   Overcast
11:52 PM -5.8 °F -23.4 °F -9.4 °F 84% 30.25 in 4.0 mi NNW 10.4 mph 16.1 mph N/A   Overcast